Overview Statistics Trail Chart Weather Telemetry Raw packets
 

This is the latest recevied weather packets stored in our database for station/object W5ITZ. If no packets are shown the sender has not sent any weather packets the latest 10 day(s).

<< 25 26 27 28 29 30 31 >>
Time Temp. Humidity Pressure Rain* Wind** Luminosity Snow
1788051963 30° C 73% 1014.7 hPa 0 mm - 0 W/m² -
1788051658 30° C 72% 1014.7 hPa 0 mm - 1 W/m² -
1788051356 30° C 72% 1014.6 hPa 0 mm - 2 W/m² -
1788051056 30° C 71% 1014.7 hPa 0 mm - 4 W/m² -
1788050750 30° C 71% 1014.8 hPa 0 mm - 7 W/m² -
1788050449 30.56° C 69% 1014.6 hPa 0 mm - 11 W/m² -
1788050145 30.56° C 69% 1014.5 hPa 0 mm - 16 W/m² -
1788049839 30.56° C 68% 1014.5 hPa 0 mm - 23 W/m² -
1788049532 30.56° C 68% 1014.5 hPa 0 mm - 29 W/m² -
1788049228 31.11° C 67% 1014.6 hPa 0 mm - 35 W/m² -
1788048923 31.11° C 66% 1014.7 hPa 0 mm - 41 W/m² -
1788048619 31.11° C 65% 1014.4 hPa 0 mm - 47 W/m² -
1788048315 31.67° C 64% 1014.5 hPa 0 mm - 55 W/m² -
1788048010 31.67° C 65% 1014.7 hPa 0 mm - 63 W/m² -
1788047708 31.67° C 66% 1014.5 hPa 0 mm - 73 W/m² -
1788047408 31.67° C 65% 1014.5 hPa 0 mm - 82 W/m² -
1788047102 31.67° C 66% 1014.6 hPa 0 mm - 93 W/m² -
1788046797 31.67° C 65% 1014.6 hPa 0 mm - 105 W/m² -
1788046496 32.22° C 63% 1014.6 hPa 0 mm - 117 W/m² -
1788046190 32.22° C 63% 1014.5 hPa 0 mm - 130 W/m² -
1788045884 32.22° C 64% 1014.4 hPa 0 mm - 150 W/m² -
1788045579 32.22° C 64% 1014.6 hPa 0 mm - 165 W/m² -
1788045275 32.22° C 64% 1014.3 hPa 0 mm - 187 W/m² -
1788044970 32.78° C 63% 1014.4 hPa 0 mm - 213 W/m² -
1788044669 32.78° C 62% 1014.7 hPa 0 mm - 232 W/m² -

* Rain latest hour (hover to see other rain measurements)
** Current wind speed in m/s (hover to see current wind gust speed)